TimeEST,TemperatureF,Dew PointF,Humidity,Sea Level PressureIn,VisibilityMPH,Wind Direction,Wind SpeedMPH,Gust SpeedMPH,PrecipitationIn,Events,Conditions,WindDirDegrees,DateUTC
12:15 AM,64.4,59.0,83,29.99,10.0,SSE,6.9,-,N/A,,Clear,160,2014-02-21 05:15:00
12:35 AM,64.4,59.0,83,29.99,10.0,SSE,10.4,-,N/A,,Clear,150,2014-02-21 05:35:00
12:55 AM,64.4,59.0,83,29.98,10.0,SSE,10.4,-,N/A,,Scattered Clouds,160,2014-02-21 05:55:00
1:15 AM,64.4,60.8,88,29.97,10.0,South,11.5,17.3,N/A,,Scattered Clouds,170,2014-02-21 06:15:00
1:35 AM,64.4,60.8,88,29.97,10.0,South,13.8,19.6,N/A,,Mostly Cloudy,170,2014-02-21 06:35:00
1:55 AM,64.4,59.0,83,29.97,10.0,South,11.5,17.3,N/A,,Mostly Cloudy,170,2014-02-21 06:55:00
2:15 AM,64.4,59.0,83,29.96,10.0,South,8.1,-,N/A,,Mostly Cloudy,170,2014-02-21 07:15:00
2:35 AM,64.4,59.0,83,29.96,10.0,South,12.7,19.6,N/A,,Overcast,170,2014-02-21 07:35:00
2:55 AM,64.4,59.0,83,29.96,10.0,South,11.5,16.1,N/A,,Overcast,170,2014-02-21 07:55:00
3:15 AM,64.4,59.0,83,29.97,10.0,South,11.5,18.4,N/A,,Mostly Cloudy,170,2014-02-21 08:15:00
3:35 AM,64.4,59.0,83,29.97,10.0,South,8.1,-,N/A,,Mostly Cloudy,170,2014-02-21 08:35:00
3:55 AM,64.4,59.0,83,29.95,10.0,SSE,9.2,-,N/A,,Mostly Cloudy,150,2014-02-21 08:55:00
4:15 AM,64.4,59.0,83,29.95,10.0,SSE,8.1,-,N/A,,Mostly Cloudy,160,2014-02-21 09:15:00
4:35 AM,64.4,59.0,83,29.95,10.0,SSE,8.1,-,N/A,,Overcast,150,2014-02-21 09:35:00
4:55 AM,64.4,59.0,83,29.94,10.0,SSE,10.4,18.4,N/A,,Mostly Cloudy,160,2014-02-21 09:55:00
5:15 AM,64.4,59.0,83,29.94,10.0,SSE,9.2,19.6,N/A,,Overcast,160,2014-02-21 10:15:00
5:35 AM,64.4,59.0,83,29.94,10.0,South,10.4,18.4,N/A,,Overcast,180,2014-02-21 10:35:00
5:55 AM,64.4,60.8,88,29.93,10.0,SSE,8.1,17.3,N/A,,Overcast,150,2014-02-21 10:55:00
6:15 AM,64.4,60.8,88,29.92,10.0,SSE,11.5,16.1,N/A,,Overcast,150,2014-02-21 11:15:00
6:35 AM,64.4,60.8,88,29.92,10.0,SSE,11.5,19.6,N/A,,Overcast,160,2014-02-21 11:35:00
6:55 AM,64.4,60.8,88,29.92,10.0,SSE,9.2,-,N/A,,Overcast,150,2014-02-21 11:55:00
7:15 AM,64.4,60.8,88,29.91,10.0,SE,9.2,-,N/A,,Overcast,140,2014-02-21 12:15:00
7:35 AM,64.4,60.8,88,29.92,10.0,SSE,10.4,18.4,N/A,,Overcast,160,2014-02-21 12:35:00
7:55 AM,64.4,60.8,88,29.91,10.0,SSE,10.4,19.6,N/A,,Overcast,150,2014-02-21 12:55:00
8:15 AM,64.4,60.8,88,29.91,10.0,SSE,10.4,18.4,N/A,,Overcast,150,2014-02-21 13:15:00
8:35 AM,64.4,60.8,88,29.91,10.0,SSE,12.7,23.0,N/A,,Mostly Cloudy,160,2014-02-21 13:35:00
8:55 AM,66.2,60.8,83,29.91,10.0,SSE,10.4,19.6,N/A,,Overcast,150,2014-02-21 13:55:00
9:35 AM,66.2,60.8,83,29.90,10.0,SSE,11.5,23.0,N/A,,Overcast,150,2014-02-21 14:35:00
9:55 AM,68.0,60.8,78,29.89,10.0,SSE,11.5,23.0,N/A,,Overcast,160,2014-02-21 14:55:00
10:15 AM,68.0,60.8,78,29.87,10.0,SSE,11.5,24.2,N/A,,Overcast,160,2014-02-21 15:15:00
10:35 AM,68.0,60.8,78,29.86,10.0,SSE,13.8,19.6,N/A,,Overcast,150,2014-02-21 15:35:00
10:55 AM,68.0,60.8,78,29.85,10.0,SSE,15.0,23.0,N/A,,Overcast,160,2014-02-21 15:55:00
11:15 AM,69.8,60.8,73,29.83,10.0,SSE,13.8,26.5,N/A,,Overcast,160,2014-02-21 16:15:00
11:35 AM,69.8,60.8,73,29.82,10.0,SSE,13.8,27.6,N/A,,Overcast,150,2014-02-21 16:35:00
11:55 AM,71.6,60.8,69,29.80,10.0,SSE,11.5,21.9,N/A,,Mostly Cloudy,150,2014-02-21 16:55:00
12:35 PM,60.8,55.4,82,29.84,7.0,South,11.5,27.6,0.13,Rain-Thunderstorm,Thunderstorms and Rain,180,2014-02-21 17:35:00
12:55 PM,60.8,57.2,88,29.82,10.0,South,8.1,-,0.13,Rain,Light Rain,190,2014-02-21 17:55:00
1:15 PM,60.8,55.4,82,29.81,10.0,South,9.2,17.3,N/A,Rain,Light Rain,190,2014-02-21 18:15:00
1:35 PM,59.0,55.4,88,29.82,10.0,South,6.9,-,0.01,Rain,Rain,190,2014-02-21 18:35:00
1:55 PM,59.0,55.4,88,29.81,7.0,SSE,6.9,-,0.07,Rain-Thunderstorm,Rain,160,2014-02-21 18:55:00
2:15 PM,59.0,55.4,88,29.79,10.0,South,6.9,-,N/A,,Mostly Cloudy,170,2014-02-21 19:15:00
2:35 PM,59.0,55.4,88,29.80,10.0,South,5.8,-,N/A,,Scattered Clouds,180,2014-02-21 19:35:00
2:55 PM,60.8,57.2,88,29.81,10.0,South,4.6,-,N/A,,Mostly Cloudy,190,2014-02-21 19:55:00
3:15 PM,60.8,57.2,88,29.81,10.0,South,5.8,-,N/A,,Scattered Clouds,190,2014-02-21 20:15:00
3:35 PM,60.8,57.2,88,29.82,10.0,SSW,5.8,-,N/A,,Mostly Cloudy,200,2014-02-21 20:35:00
3:55 PM,59.0,50.0,72,29.84,10.0,WSW,11.5,17.3,N/A,,Overcast,250,2014-02-21 20:55:00
4:15 PM,55.4,50.0,82,29.86,10.0,WSW,6.9,-,N/A,,Overcast,250,2014-02-21 21:15:00
4:35 PM,55.4,46.4,72,29.86,10.0,West,8.1,17.3,N/A,,Overcast,260,2014-02-21 21:35:00
4:55 PM,55.4,44.6,67,29.87,10.0,West,6.9,-,N/A,,Overcast,260,2014-02-21 21:55:00
5:15 PM,55.4,46.4,72,29.88,10.0,SW,4.6,-,N/A,,Overcast,220,2014-02-21 22:15:00
5:35 PM,55.4,44.6,67,29.89,10.0,WSW,4.6,-,N/A,,Overcast,240,2014-02-21 22:35:00
5:55 PM,53.6,44.6,72,29.90,10.0,SW,3.5,-,N/A,,Overcast,230,2014-02-21 22:55:00
6:15 PM,53.6,42.8,67,29.92,10.0,SSW,3.5,-,N/A,,Overcast,210,2014-02-21 23:15:00
6:35 PM,53.6,42.8,67,29.93,10.0,SW,3.5,-,N/A,,Mostly Cloudy,230,2014-02-21 23:35:00
6:55 PM,53.6,42.8,67,29.94,10.0,SW,3.5,-,N/A,,Mostly Cloudy,220,2014-02-21 23:55:00
7:15 PM,50.0,42.8,76,29.94,10.0,Calm,Calm,-,N/A,,Scattered Clouds,0,2014-02-22 00:15:00
7:35 PM,50.0,42.8,76,29.95,10.0,Calm,Calm,-,N/A,,Scattered Clouds,0,2014-02-22 00:35:00
7:55 PM,44.6,42.8,93,29.96,10.0,SSW,3.5,-,N/A,,Clear,210,2014-02-22 00:55:00
8:15 PM,44.6,42.8,93,29.97,10.0,SSW,3.5,-,N/A,,Clear,210,2014-02-22 01:15:00
8:35 PM,44.6,41.0,87,29.97,10.0,Calm,Calm,-,N/A,,Clear,0,2014-02-22 01:35:00
8:55 PM,46.4,41.0,81,29.97,10.0,SW,4.6,-,N/A,,Clear,230,2014-02-22 01:55:00
9:15 PM,44.6,41.0,87,29.99,10.0,SSW,3.5,-,N/A,,Clear,210,2014-02-22 02:15:00
9:35 PM,41.0,39.2,93,29.99,10.0,Calm,Calm,-,N/A,,Clear,0,2014-02-22 02:35:00
9:55 PM,41.0,41.0,100,30.00,4.0,Calm,Calm,-,N/A,,Clear,0,2014-02-22 02:55:00
10:15 PM,39.2,39.2,100,30.00,1.8,Calm,Calm,-,N/A,,Mist,0,2014-02-22 03:15:00
10:35 PM,37.4,37.4,100,30.01,1.0,Calm,Calm,-,N/A,,Mist,0,2014-02-22 03:35:00
10:55 PM,37.4,37.4,100,30.01,4.0,Calm,Calm,-,N/A,,Clear,0,2014-02-22 03:55:00
11:15 PM,42.8,37.4,81,30.01,10.0,West,3.5,-,N/A,,Clear,260,2014-02-22 04:15:00
11:35 PM,41.0,35.6,81,30.02,10.0,Calm,Calm,-,N/A,,Clear,0,2014-02-22 04:35:00
11:55 PM,46.4,33.8,62,30.02,10.0,West,6.9,-,N/A,,Clear,260,2014-02-22 04:55:00